Preview of NWS' New Version of Forecast
This preview is not operational and should not be used for support decisions.

Regional Weather Roundup (RWR)

Issued by National Weather Service (NWS)

                            
000
ASUS42 KTBW 170917
RWRFL 
FLORIDA REGIONAL WEATHER ROUNDUP
NATIONAL WEATHER SERVICE TAMPA BAY RUSKIN FL
400 AM EST SUN FEB 17 2019

NOTE: "FAIR" INDICATES FEW OR NO CLOUDS BELOW 12,000 FEET WITH NO
SIGNIFICANT WEATHER AND/OR OBSTRUCTIONS TO VISIBILITY.

FLZ001>010-012>015-112-114-115-171000-
PANHANDLE FLORIDA
  
CITY           SKY/WX    TMP DP  RH WIND       PRES   REMARKS
PENSACOLA      CLOUDY    67  64  90 SE7       29.82S                  
PENSACOLA NAS  CLOUDY    66  66 100 SE7       29.81S FOG              
MILTON NAS     CLOUDY    64  64 100 S7        29.82  FOG              
CRESTVIEW      MOCLDY    64  63  96 CALM      29.84S FOG              
DUKE FIELD     MOCLDY    63  63 100 S7        29.83R FOG              
VALPARAISO     MOCLDY    66  66 100 S6        29.83R                  
MARY ESTHER    CLOUDY    65  64  96 S7        29.82                   
PANAMA CITY    FOG       64  63  96 SE5       29.84S VSB 1            
TYNDALL AFB    FOG       64  63  97 S9        29.84F VSB 1/8          
APALACHICOLA   FOG       64  63  96 S7        29.86F VSB 1/4          

STATION/POSITION SKY/WX   TEMP    WIND        PRES    WAVE   SWELL
                          AIR SEA DIR/SP/G            HT/PER HT/PER
                          (F)     (DEG/KT/KT) (MB)    (FT/S) (FT/S)
30.1N   87.6W              65     140/  8/  8 1009.8    2/ 6   2/ 6
29.2N   88.2W                     190/ 10/ 10 1009.9S   3/ 4   2/ 5
PANAMA CITY BEAC           63 62  160/ 10/ 12 1010.8F
TOWER C                    67     170/ 11/ 11 1011.9F

$$
FLZ011-016>038-118-127-128-134-139-239-171000-
NORTH FLORIDA
  
CITY           SKY/WX    TMP DP  RH WIND       PRES   REMARKS
MARIANNA       FOG       63  63 100 S5        29.86R VSB 1/2          
TALLAHASSEE    CLOUDY    65  65 100 S7        29.87S                  
PERRY          FOG       63  62  97 CALM      29.90S VSB 1/4          
LIVE OAK       CLOUDY    66  66 100 CALM      29.90S FOG              
CROSS CITY     FOG       65  65  99 S5        29.91S VSB<1/4          
LAKE CITY      CLOUDY    63  63 100 SW5       29.92S FOG              
GAINESVILLE    CLOUDY    69  64  84 SW3       29.94R                  
WILLISTON        N/A    N/A N/A N/A MISG        N/A                   
PALATKA        CLOUDY    66  66 100 NW5       29.93R                  
MAYPORT NAS    CLOUDY    65  64  97 W8        29.91R                  
JACKSONVILLE   CLOUDY    64  63  96 SW8       29.91R                  
JAX NAS        CLOUDY    67  64  90 SW7       29.92R                  
JAX CECIL      CLOUDY    66  64  94 SW5       29.92R                  
FERNANDINA BEA CLOUDY    64  63  96 W9        29.91S                  
ST AUGUSTINE   CLOUDY    65  63  93 SW8       29.93R                  
PALM COAST     FAIR      61  60  97 CALM      29.92S FOG              

STATION/POSITION SKY/WX   TEMP    WIND        PRES    WAVE   SWELL
                          AIR SEA DIR/SP/G            HT/PER HT/PER
                          (F)     (DEG/KT/KT) (MB)    (FT/S) (FT/S)
SHELL POINT      NOT AVBL
KEATON BEACH               63     170/  5/  7 1012.7S
CEDAR KEY                  65     200/  8/ 10 1013.2R
FERNANDINA                 64 60  240/  4/  7 1013.6R
30.7N   81.3W                 59                N/A     2/ 8
MAYPORT                    64 61  260/  7/  8 1012.9R
31.4N   80.9W              60 58   40/  2/  4 1012.4R   2/ 8   2/ 8
ST AUGUSTINE               65 58  250/  4/  5 1013.4R

$$
FLZ040-043>046-052-053-057-058-063-144-171000-
INTERIOR CENTRAL FLORIDA
  
CITY           SKY/WX    TMP DP  RH WIND       PRES   REMARKS
OCALA          CLOUDY    60  60 100 CALM      29.93R                  
LEESBURG       FAIR      64  62  93 S6        29.93R                  
SANFORD        FAIR      62  60  93 S3        29.93R                  
ORLANDO EXEC   FAIR      63  62  97 S3        29.93R                  
ORLANDO INTL   FAIR      61  61 100 CALM      29.94R                  
KISSIMMEE      FAIR      62  61  96 CALM      29.94S FOG              
WINTER HAVEN   FAIR      66  63  90 S5        29.94S                  
BARTOW         FAIR      59  59 100 CALM      29.93R                  
SEBRING        FOG       63  63  99 CALM      29.94R VSB 3/4          
OKEECHOBEE       N/A     57  57 100 CALM      29.93S                  

$$
FLZ041-047-054-059-064-141-147-171000-
EAST CENTRAL FLORIDA
  
CITY           SKY/WX    TMP DP  RH WIND       PRES   REMARKS
DAYTONA BEACH  FAIR      62  62 100 CALM      29.93R                  
DELAND         FAIR      59  59 100 CALM      29.93R                  
JFK SPACE CTR  FAIR      62  60  94 CALM      29.93R                  
CAPE CANAVERAL FOG       57  55  94 S5        29.92S VSB 5/8          
PATRICK AFB    FAIR      63  63 100 CALM      29.93R                  
MELBOURNE      FAIR      63  60  90 SW5       29.93S                  
VERO BEACH     FAIR      60  58  92 CALM      29.94R                  
FT PIERCE      FAIR      59  56  89 CALM      29.94R                  
STUART         FAIR      64  63  94 CALM      29.95S                  

STATION/POSITION SKY/WX   TEMP    WIND        PRES    WAVE   SWELL
                          AIR SEA DIR/SP/G            HT/PER HT/PER
                          (F)     (DEG/KT/KT) (MB)    (FT/S) (FT/S)
28.5N   80.2W              66     200/  6/  6 1014.0R   2/ 8   2/ 8
28.9N   78.5W              75 74  280/  8/ 12 1013.9R   3/ 8   3/ 8
TRIDENT PIER               63 65  140/  3/  4 1014.6R
28.4N   80.5W                 64                N/A     1/ 8

$$
FLZ050-056-061-142-242-148-248-149-249-151-251-155-255-
160-260-171000-
WEST CENTRAL FLORIDA
  
CITY           SKY/WX    TMP DP  RH WIND       PRES   REMARKS
CRYSTAL RIVER  FAIR      61  59  94 CALM      29.92R FOG              
INVERNESS      CLOUDY    57  57 100 CALM      29.93R FOG              
BROOKSVILLE    MOCLDY    62  61  96 CALM      29.93R                  
CLEARWATER AIR FAIR      64  63  94 CALM      29.91S                  
ST PETE CLEARW FAIR      66  63  90 S7        29.91S                  
TAMPA INTL     FAIR      67  64  90 SE5       29.92S                  
TAMPA EXEC     FAIR      59  59 100 CALM      29.93S FOG              
PLANT CITY     FAIR      64  63  94 CALM      29.95S                  
MACDILL AFB    FAIR      67  64  91 CALM      29.91S                  
PETER O KNIGHT CLOUDY   N/A N/A N/A S5        29.93S                  
ST PETERSBURG  FAIR      65  64  97 S5        29.90S                  
SARASOTA       FAIR      63  62  97 SE3       29.91R FOG              
VENICE         FOG       64  64 100 CALM      29.93R VSB<1/4          

STATION/POSITION SKY/WX   TEMP    WIND        PRES    WAVE   SWELL
                          AIR SEA DIR/SP/G            HT/PER HT/PER
                          (F)     (DEG/KT/KT) (MB)    (FT/S) (FT/S)
27.3N   84.2W                 71                N/A     3/ 5
CLEARWATER BEACH           69 66  160/  6/ 10 1013.0R
MIDDLE TAMPA BAY           66     180/  6/  7 1013.2R
VENICE                     69 67  140/  6/  7   N/A

$$
FLZ066-069-070-075>078-162-262-165-265-171000-
SOUTHWEST FLORIDA AND KEYS
  
CITY           SKY/WX    TMP DP  RH WIND       PRES   REMARKS
PUNTA GORDA    FOG       61  61 100 S6        29.95R VSB 1/4          
FT MYERS       FAIR      65  64  97 CALM      29.93R FOG              
SOUTHWEST INTL FAIR      64  63  96 CALM      29.94R FOG              
NAPLES         FAIR      67  66  97 CALM      29.93R                  
MARCO ISLAND   FOG       64  64 100 E3        29.95R VSB 1            
IMMOKALEE      FOG       64  63  94 CALM      29.92S VSB 3/4          
MARATHON       CLOUDY    79  67  66 S10       29.93R                  
KEY WEST NAS   FAIR      77  70  79 S12       29.92R                  
KEY WEST INTL  FAIR      78  71  79 SE13      29.92S                  

STATION/POSITION SKY/WX   TEMP    WIND        PRES    WAVE   SWELL
                          AIR SEA DIR/SP/G            HT/PER HT/PER
                          (F)     (DEG/KT/KT) (MB)    (FT/S) (FT/S)
NAPLES                     68 71   90/  5/  6 1013.4R
26.0N   85.6W              78 80  170/ 14/ 17 1011.1R   3/ 5
DRY TORTUGAS               76     150/ 10/ 11 1012.7R
SAND KEY                   76                 1013.0R
SOMBRERO KEY               78                 1012.7R
LONG KEY                   75 75  170/  6/  7 1013.1F
MOLASSES REEF              77 78  200/  8/  9 1014.1R

$$
FLZ067-068-071>074-168-172>174-171000-
SOUTHEAST FLORIDA 
  
CITY           SKY/WX    TMP DP  RH WIND       PRES   REMARKS
W PALM BEACH   FAIR      66  63  90 CALM      29.95S                  
FT LAUDER-EXEC FAIR      66  66 100 CALM      29.94S                  
FT LAUDERDALE  FAIR      69  69 100 CALM      29.94R                  
POMPANO BEACH  FAIR      67  64  90 CALM      29.94S                  
PEMBROKE PINES FAIR      66  63  90 CALM      29.96R                  
OPA LOCKA      FAIR      66  64  93 CALM      29.95R                  
MIAMI          FAIR      67  67 100 CALM      29.95R                  
WEST KENDALL   FAIR      66  65  96 CALM      29.94R                  
HOMESTEAD      FAIR      65  64  97 CALM      29.93R                  

STATION/POSITION SKY/WX   TEMP    WIND        PRES    WAVE   SWELL
                          AIR SEA DIR/SP/G            HT/PER HT/PER
                          (F)     (DEG/KT/KT) (MB)    (FT/S) (FT/S)
PORT EVERGLADES            71      CALM  /  1 1013.8R
VIRGINIA KEY               72 75  280/  1/  2 1013.2R
LAKE WORTH                 70 76  250/  3/  4 1015.0S
FOWEY ROCKS                76 76  190/  5/  6 1014.6R
SETTLEMENT POINT           76     250/  7/  8 1014.2R

$$